Location: Saint-Maurice-d�Ard�che
(44.5216°N, 4.4002°E)
Time: 11:02:23
(UTC+00:00)

YAOGAN 1 - Pass Details

Date: 30 March 2020
Orbit: 618 x 620 km, 97.9° (Epoch: 05 June)

Event Time Altitude Azimuth Distance (km) Brightness Sun altitude
Rises 18:52:24 0° 188° (S) 2,880 5.9 -8.6°
Reaches altitude 10° 18:54:44 10° 197° (SSW) 1,980 5.2 -9.0°
Maximum altitude 18:58:39 34° 263° (W) 1,029 4.4 -9.7°
Drops below altitude 10° 19:02:37 10° 329° (NNW) 1,996 5.9 -10.4°
Sets 19:04:59 0° 339° (NNW) 2,908 6.6 -10.8°
